TimeEDT,TemperatureF,Dew PointF,Humidity,Sea Level PressureIn,VisibilityMPH,Wind Direction,Wind SpeedMPH,Gust SpeedMPH,PrecipitationIn,Events,Conditions,WindDirDegrees,DateUTC
12:53 AM,50.0,46.9,89,29.73,10.0,South,3.5,-,N/A,,Clear,180,2013-06-14 04:53:00
1:53 AM,48.0,46.0,93,29.71,10.0,Calm,Calm,-,N/A,,Clear,0,2013-06-14 05:53:00
2:53 AM,46.9,45.0,93,29.70,10.0,Calm,Calm,-,N/A,,Clear,0,2013-06-14 06:53:00
3:53 AM,45.0,44.1,97,29.69,10.0,Calm,Calm,-,N/A,,Clear,0,2013-06-14 07:53:00
4:53 AM,46.0,45.0,96,29.69,9.0,Calm,Calm,-,N/A,,Clear,0,2013-06-14 08:53:00
5:53 AM,48.0,46.9,96,29.70,9.0,Calm,Calm,-,N/A,,Partly Cloudy,0,2013-06-14 09:53:00
6:53 AM,52.0,48.9,89,29.70,10.0,Calm,Calm,-,N/A,,Partly Cloudy,0,2013-06-14 10:53:00
7:53 AM,55.9,51.1,84,29.69,10.0,Calm,Calm,-,N/A,,Clear,0,2013-06-14 11:53:00
8:53 AM,57.9,52.0,81,29.69,10.0,NNW,3.5,-,N/A,,Clear,340,2013-06-14 12:53:00
9:53 AM,62.1,52.0,70,29.68,10.0,North,5.8,-,N/A,,Clear,360,2013-06-14 13:53:00
10:53 AM,64.9,52.0,63,29.68,10.0,NNW,3.5,-,N/A,,Clear,330,2013-06-14 14:53:00
11:53 AM,66.0,52.0,60,29.67,10.0,Calm,Calm,-,N/A,,Clear,0,2013-06-14 15:53:00
12:53 PM,69.1,51.1,53,29.66,10.0,Variable,3.5,-,N/A,,Clear,0,2013-06-14 16:53:00
1:53 PM,69.1,51.1,53,29.64,10.0,Calm,Calm,-,N/A,,Partly Cloudy,0,2013-06-14 17:53:00
2:53 PM,71.1,50.0,47,29.63,10.0,East,5.8,-,N/A,,Scattered Clouds,90,2013-06-14 18:53:00
3:53 PM,70.0,50.0,49,29.62,10.0,SE,4.6,-,N/A,,Clear,130,2013-06-14 19:53:00
4:53 PM,70.0,53.1,55,29.62,10.0,South,4.6,-,N/A,,Partly Cloudy,170,2013-06-14 20:53:00
5:14 PM,69.8,51.8,53,29.62,10.0,SW,4.6,-,N/A,Thunderstorm,Partly Cloudy,220,2013-06-14 21:14:00
5:53 PM,60.1,55.9,86,29.67,2.5,North,5.8,19.6,0.05,Rain-Thunderstorm,Heavy Rain,350,2013-06-14 21:53:00
6:03 PM,59.0,57.2,94,29.66,5.0,Calm,Calm,-,0.01,Rain-Thunderstorm,Light Rain,0,2013-06-14 22:03:00
6:29 PM,59.0,57.2,94,29.66,6.0,Calm,Calm,-,0.05,Rain,Light Rain,0,2013-06-14 22:29:00
6:53 PM,61.0,57.9,90,29.65,10.0,ESE,4.6,-,0.05,,Mostly Cloudy,110,2013-06-14 22:53:00
7:53 PM,60.1,55.9,86,29.64,10.0,SE,5.8,-,N/A,,Scattered Clouds,140,2013-06-14 23:53:00
8:53 PM,59.0,55.9,90,29.65,7.0,Variable,4.6,-,0.01,Rain,Light Rain,0,2013-06-15 00:53:00
9:53 PM,57.9,55.0,90,29.73,8.0,North,11.5,18.4,0.02,Rain,Light Rain,360,2013-06-15 01:53:00
10:53 PM,57.0,54.0,89,29.68,10.0,SW,4.6,-,0.01,,Mostly Cloudy,230,2013-06-15 02:53:00
11:53 PM,54.0,53.1,97,29.68,7.0,WSW,3.5,-,N/A,,Clear,240,2013-06-15 03:53:00